Location: Ingoldesthorpe
(52.8667°N, 0.5167°E)
Time: 21:43:12
(UTC+00:00)

Cosmos 2360 Rocket - Pass Details

Date: 19 May 2025
Orbit: 834 x 842 km, 71.0° (Epoch: 18 June)

Event Time Altitude Azimuth Distance (km) Brightness Sun altitude
Rises 21:23:18 0° 326° (NNW) 3,395 7.7 -10.1°
Reaches altitude 10° 21:26:21 10° 342° (NNW) 2,458 6.0 -10.4°
Maximum altitude 21:30:38 22° 32° (NNE) 1,775 4.2 -10.8°
Drops below altitude 10° 21:34:54 10° 81° (E) 2,451 4.4 -11.1°
Enters shadow 21:37:49 - 97° (E) 3,347 4.9 -11.4°
